Time,TemperatureF,DewpointF,PressureIn,WindDirection,WindDirectionDegrees,WindSpeedMPH,WindSpeedGustMPH,Humidity,HourlyPrecipIn,Conditions,Clouds,dailyrainin,SoftwareType,DateUTC
2015-08-01 00:01:00,66.8,60.8,30.04,WSW,237,2.0,2.0,81,0.00,,,0.00,Wunderground v.1.15,2015-08-01 05:01:00,
2015-08-01 00:06:00,66.8,60.8,30.04,WSW,237,0.0,2.0,81,0.00,,,0.00,Wunderground v.1.15,2015-08-01 05:06:00,
2015-08-01 00:12:00,66.5,60.8,30.04,WSW,237,0.0,1.0,82,0.00,,,0.00,Wunderground v.1.15,2015-08-01 05:12:00,
2015-08-01 00:17:00,66.3,60.6,30.04,WSW,237,0.0,1.0,82,0.00,,,0.00,Wunderground v.1.15,2015-08-01 05:17:00,
2015-08-01 00:22:00,66.1,60.8,30.04,WSW,237,1.0,1.0,83,0.00,,,0.00,Wunderground v.1.15,2015-08-01 05:22:00,
2015-08-01 00:28:00,65.8,60.5,30.04,WSW,237,1.0,1.0,83,0.00,,,0.00,Wunderground v.1.15,2015-08-01 05:28:00,
2015-08-01 00:33:00,65.5,60.9,30.04,WSW,237,0.0,0.0,85,0.00,,,0.00,Wunderground v.1.15,2015-08-01 05:33:00,
2015-08-01 00:38:00,65.2,60.6,30.04,WSW,237,0.0,0.0,85,0.00,,,0.00,Wunderground v.1.15,2015-08-01 05:38:00,
2015-08-01 00:44:00,64.9,60.3,30.04,WSW,237,0.0,2.0,85,0.00,,,0.00,Wunderground v.1.15,2015-08-01 05:44:00,
2015-08-01 00:49:00,64.7,60.1,30.04,WSW,237,0.0,2.0,85,0.00,,,0.00,Wunderground v.1.15,2015-08-01 05:49:00,
2015-08-01 00:55:00,64.4,60.4,30.04,WSW,237,0.0,1.0,87,0.00,,,0.00,Wunderground v.1.15,2015-08-01 05:55:00,
2015-08-01 01:00:00,64.2,59.9,30.04,WSW,237,0.0,0.0,86,0.00,,,0.00,Wunderground v.1.15,2015-08-01 06:00:00,
2015-08-01 01:05:00,63.8,60.2,30.04,WSW,237,0.0,2.0,88,0.00,,,0.00,Wunderground v.1.15,2015-08-01 06:05:00,
2015-08-01 01:11:00,63.6,60.0,30.04,WSW,237,0.0,0.0,88,0.00,,,0.00,Wunderground v.1.15,2015-08-01 06:11:00,
2015-08-01 01:16:00,63.4,60.1,30.04,WSW,237,0.0,1.0,89,0.00,,,0.00,Wunderground v.1.15,2015-08-01 06:16:00,
2015-08-01 01:21:00,63.2,59.9,30.04,WSW,237,0.0,1.0,89,0.00,,,0.00,Wunderground v.1.15,2015-08-01 06:21:00,
2015-08-01 01:27:00,63.1,59.8,30.04,WSW,237,0.0,1.0,89,0.00,,,0.00,Wunderground v.1.15,2015-08-01 06:27:00,
2015-08-01 01:32:00,62.9,59.6,30.04,WSW,237,0.0,0.0,89,0.00,,,0.00,Wunderground v.1.15,2015-08-01 06:32:00,
2015-08-01 01:37:00,62.9,59.9,30.04,WSW,237,1.0,1.0,90,0.00,,,0.00,Wunderground v.1.15,2015-08-01 06:37:00,
2015-08-01 01:43:00,62.9,59.9,30.04,WSW,237,0.0,3.0,90,0.00,,,0.00,Wunderground v.1.15,2015-08-01 06:43:00,
2015-08-01 01:48:00,62.9,59.9,30.04,WSW,237,0.0,3.0,90,0.00,,,0.00,Wunderground v.1.15,2015-08-01 06:48:00,
2015-08-01 01:53:00,62.9,59.6,30.03,WSW,237,1.0,1.0,89,0.00,,,0.00,Wunderground v.1.15,2015-08-01 06:53:00,
2015-08-01 01:59:00,62.7,59.4,30.03,WSW,237,0.0,2.0,89,0.00,,,0.00,Wunderground v.1.15,2015-08-01 06:59:00,
2015-08-01 02:04:00,62.5,59.5,30.03,WSW,237,0.0,1.0,90,0.00,,,0.00,Wunderground v.1.15,2015-08-01 07:04:00,
2015-08-01 02:09:00,62.4,59.4,30.03,WSW,237,0.0,1.0,90,0.00,,,0.00,Wunderground v.1.15,2015-08-01 07:09:00,
2015-08-01 02:14:00,62.2,59.2,30.03,WSW,237,0.0,0.0,90,0.00,,,0.00,Wunderground v.1.15,2015-08-01 07:14:00,
2015-08-01 02:19:00,62.2,59.5,30.03,WSW,237,1.0,1.0,91,0.00,,,0.00,Wunderground v.1.15,2015-08-01 07:19:00,
2015-08-01 02:24:00,62.1,59.4,30.03,WSW,237,0.0,1.0,91,0.00,,,0.00,Wunderground v.1.15,2015-08-01 07:24:00,
2015-08-01 02:29:00,62.0,59.3,30.03,WSW,237,0.0,1.0,91,0.00,,,0.00,Wunderground v.1.15,2015-08-01 07:29:00,
2015-08-01 02:34:00,61.8,59.1,30.02,WSW,237,0.0,1.0,91,0.00,,,0.00,Wunderground v.1.15,2015-08-01 07:34:00,
2015-08-01 02:39:00,61.7,59.4,30.02,WSW,237,1.0,1.0,92,0.00,,,0.00,Wunderground v.1.15,2015-08-01 07:39:00,
2015-08-01 02:44:00,61.6,59.3,30.02,WSW,237,0.0,1.0,92,0.00,,,0.00,Wunderground v.1.15,2015-08-01 07:44:00,
2015-08-01 02:49:00,61.5,59.2,30.02,WSW,237,0.0,1.0,92,0.00,,,0.00,Wunderground v.1.15,2015-08-01 07:49:00,
2015-08-01 02:54:00,61.4,59.1,30.02,WSW,237,0.0,0.0,92,0.00,,,0.00,Wunderground v.1.15,2015-08-01 07:54:00,
2015-08-01 02:59:00,61.1,58.8,30.02,WSW,237,0.0,2.0,92,0.00,,,0.00,Wunderground v.1.15,2015-08-01 07:59:00,
2015-08-01 03:04:00,60.9,58.9,30.02,WSW,237,0.0,1.0,93,0.00,,,0.00,Wunderground v.1.15,2015-08-01 08:04:00,
2015-08-01 03:09:00,60.8,59.1,30.02,WSW,237,0.0,1.0,94,0.00,,,0.00,Wunderground v.1.15,2015-08-01 08:09:00,
2015-08-01 03:14:00,60.7,59.0,30.02,WSW,237,0.0,1.0,94,0.00,,,0.00,Wunderground v.1.15,2015-08-01 08:14:00,
2015-08-01 03:19:00,60.6,58.9,30.02,WSW,237,0.0,1.0,94,0.00,,,0.00,Wunderground v.1.15,2015-08-01 08:19:00,
2015-08-01 03:24:00,60.6,58.9,30.02,WSW,237,0.0,1.0,94,0.00,,,0.00,Wunderground v.1.15,2015-08-01 08:24:00,
2015-08-01 03:29:00,60.6,58.9,30.01,WSW,237,0.0,1.0,94,0.00,,,0.00,Wunderground v.1.15,2015-08-01 08:29:00,
2015-08-01 03:34:00,60.6,58.9,30.01,WSW,237,0.0,0.0,94,0.00,,,0.00,Wunderground v.1.15,2015-08-01 08:34:00,
2015-08-01 03:39:00,60.7,59.0,30.01,WSW,237,1.0,1.0,94,0.00,,,0.00,Wunderground v.1.15,2015-08-01 08:39:00,
2015-08-01 03:44:00,61.0,59.0,30.01,WSW,237,1.0,2.0,93,0.00,,,0.00,Wunderground v.1.15,2015-08-01 08:44:00,
2015-08-01 03:49:00,61.2,59.2,30.01,WSW,237,0.0,2.0,93,0.00,,,0.00,Wunderground v.1.15,2015-08-01 08:49:00,
2015-08-01 03:54:00,61.2,58.9,30.01,WSW,237,0.0,1.0,92,0.00,,,0.00,Wunderground v.1.15,2015-08-01 08:54:00,
2015-08-01 03:59:00,61.0,58.7,30.01,WSW,237,1.0,2.0,92,0.00,,,0.00,Wunderground v.1.15,2015-08-01 08:59:00,
2015-08-01 04:04:00,60.8,58.5,30.01,WSW,237,1.0,2.0,92,0.00,,,0.00,Wunderground v.1.15,2015-08-01 09:04:00,
2015-08-01 04:09:00,60.8,58.5,30.01,WSW,237,0.0,2.0,92,0.00,,,0.00,Wunderground v.1.15,2015-08-01 09:09:00,
2015-08-01 04:14:00,60.7,58.4,30.01,NNW,336,3.0,3.0,92,0.00,,,0.00,Wunderground v.1.15,2015-08-01 09:14:00,
2015-08-01 04:19:00,59.9,57.6,30.01,NNW,348,1.0,4.0,92,0.00,,,0.00,Wunderground v.1.15,2015-08-01 09:19:00,
2015-08-01 04:24:00,59.7,58.0,30.01,NNW,348,0.0,2.0,94,0.00,,,0.00,Wunderground v.1.15,2015-08-01 09:24:00,
2015-08-01 04:29:00,59.6,57.9,30.01,NNW,348,0.0,2.0,94,0.00,,,0.00,Wunderground v.1.15,2015-08-01 09:29:00,
2015-08-01 04:34:00,59.6,57.9,30.01,NNW,348,0.0,1.0,94,0.00,,,0.00,Wunderground v.1.15,2015-08-01 09:34:00,
2015-08-01 04:39:00,59.6,57.9,30.00,NNW,348,0.0,1.0,94,0.00,,,0.00,Wunderground v.1.15,2015-08-01 09:39:00,
2015-08-01 04:44:00,59.7,58.3,30.00,NNW,348,0.0,1.0,95,0.00,,,0.00,Wunderground v.1.15,2015-08-01 09:44:00,
2015-08-01 04:49:00,59.7,58.0,30.01,NNW,348,0.0,1.0,94,0.00,,,0.00,Wunderground v.1.15,2015-08-01 09:49:00,
2015-08-01 04:54:00,59.7,58.0,30.00,NNW,348,0.0,1.0,94,0.00,,,0.00,Wunderground v.1.15,2015-08-01 09:54:00,
2015-08-01 04:59:00,59.8,58.1,30.00,NNW,348,0.0,2.0,94,0.00,,,0.00,Wunderground v.1.15,2015-08-01 09:59:00,
2015-08-01 05:04:00,59.8,58.1,30.00,NNW,348,0.0,1.0,94,0.00,,,0.00,Wunderground v.1.15,2015-08-01 10:04:00,
2015-08-01 05:09:00,59.8,58.1,30.00,NNW,348,1.0,2.0,94,0.00,,,0.00,Wunderground v.1.15,2015-08-01 10:09:00,
2015-08-01 05:14:00,59.9,58.2,30.00,NNW,348,0.0,1.0,94,0.00,,,0.00,Wunderground v.1.15,2015-08-01 10:14:00,
2015-08-01 05:19:00,59.9,58.2,30.00,ENE,57,2.0,2.0,94,0.00,,,0.00,Wunderground v.1.15,2015-08-01 10:19:00,
2015-08-01 05:24:00,60.1,58.4,30.00,East,88,1.0,3.0,94,0.00,,,0.00,Wunderground v.1.15,2015-08-01 10:24:00,
2015-08-01 05:29:00,60.1,58.4,30.00,East,88,0.0,3.0,94,0.00,,,0.00,Wunderground v.1.15,2015-08-01 10:29:00,
2015-08-01 05:34:00,60.1,58.4,30.00,East,88,0.0,1.0,94,0.00,,,0.00,Wunderground v.1.15,2015-08-01 10:34:00,
2015-08-01 05:39:00,60.0,58.3,30.00,East,88,0.0,1.0,94,0.00,,,0.00,Wunderground v.1.15,2015-08-01 10:39:00,
2015-08-01 05:44:00,60.0,58.3,30.00,East,88,0.0,1.0,94,0.00,,,0.00,Wunderground v.1.15,2015-08-01 10:44:00,
2015-08-01 05:49:00,59.8,58.1,29.99,East,88,2.0,2.0,94,0.00,,,0.00,Wunderground v.1.15,2015-08-01 10:49:00,
2015-08-01 05:54:00,59.8,58.1,29.99,East,88,1.0,3.0,94,0.00,,,0.00,Wunderground v.1.15,2015-08-01 10:54:00,
2015-08-01 05:59:00,59.8,58.4,29.99,ESE,123,1.0,3.0,95,0.00,,,0.00,Wunderground v.1.15,2015-08-01 10:59:00,
2015-08-01 06:09:00,59.8,58.4,29.99,ESE,123,0.0,2.0,95,0.00,,,0.00,Wunderground v.1.15,2015-08-01 11:09:00,
2015-08-01 06:14:00,59.7,58.0,29.99,ESE,123,0.0,0.0,94,0.00,,,0.00,Wunderground v.1.15,2015-08-01 11:14:00,
2015-08-01 06:19:00,59.7,58.3,29.99,ESE,123,0.0,1.0,95,0.00,,,0.00,Wunderground v.1.15,2015-08-01 11:19:00,
2015-08-01 06:24:00,59.7,58.3,29.99,ESE,123,0.0,1.0,95,0.00,,,0.00,Wunderground v.1.15,2015-08-01 11:24:00,
2015-08-01 06:29:00,59.9,58.2,29.99,ESE,123,0.0,1.0,94,0.00,,,0.00,Wunderground v.1.15,2015-08-01 11:29:00,
2015-08-01 06:34:00,60.2,58.5,29.99,ESE,123,0.0,1.0,94,0.00,,,0.00,Wunderground v.1.15,2015-08-01 11:34:00,
2015-08-01 06:39:00,60.7,58.7,29.99,ESE,123,1.0,1.0,93,0.00,,,0.00,Wunderground v.1.15,2015-08-01 11:39:00,
2015-08-01 06:44:00,61.3,59.0,30.00,ESE,123,1.0,2.0,92,0.00,,,0.00,Wunderground v.1.15,2015-08-01 11:44:00,
2015-08-01 06:49:00,61.5,58.8,30.00,ESE,123,0.0,2.0,91,0.00,,,0.00,Wunderground v.1.15,2015-08-01 11:49:00,
2015-08-01 06:54:00,61.8,59.1,30.00,ESE,123,1.0,1.0,91,0.00,,,0.00,Wunderground v.1.15,2015-08-01 11:54:00,
2015-08-01 06:59:00,62.2,59.2,30.00,ESE,123,0.0,2.0,90,0.00,,,0.00,Wunderground v.1.15,2015-08-01 11:59:00,
2015-08-01 07:04:00,62.8,59.5,30.00,ESE,123,1.0,2.0,89,0.00,,,0.00,Wunderground v.1.15,2015-08-01 12:04:00,
2015-08-01 07:09:00,63.3,60.0,29.99,ESE,123,1.0,2.0,89,0.00,,,0.00,Wunderground v.1.15,2015-08-01 12:09:00,
2015-08-01 07:15:00,63.6,60.0,30.00,ESE,123,1.0,2.0,88,0.00,,,0.00,Wunderground v.1.15,2015-08-01 12:15:00,
2015-08-01 07:20:00,63.9,60.6,29.99,ESE,122,0.0,1.0,89,0.00,,,0.00,Wunderground v.1.15,2015-08-01 12:20:00,
2015-08-01 07:25:00,64.3,60.3,29.99,ESE,123,2.0,2.0,87,0.00,,,0.00,Wunderground v.1.15,2015-08-01 12:25:00,
2015-08-01 07:30:00,64.6,60.3,29.99,SE,144,2.0,2.0,86,0.00,,,0.00,Wunderground v.1.15,2015-08-01 12:30:00,
2015-08-01 07:35:00,64.7,60.4,29.99,SE,132,2.0,4.0,86,0.00,,,0.00,Wunderground v.1.15,2015-08-01 12:35:00,
2015-08-01 07:40:00,65.0,61.0,30.00,SSE,153,2.0,2.0,87,0.00,,,0.00,Wunderground v.1.15,2015-08-01 12:40:00,
2015-08-01 07:45:00,65.6,61.6,29.99,South,171,0.0,2.0,87,0.00,,,0.00,Wunderground v.1.15,2015-08-01 12:45:00,
2015-08-01 07:50:00,66.3,62.3,30.00,South,188,2.0,2.0,87,0.00,,,0.00,Wunderground v.1.15,2015-08-01 12:50:00,
2015-08-01 07:55:00,66.7,62.7,29.99,South,188,0.0,3.0,87,0.00,,,0.00,Wunderground v.1.15,2015-08-01 12:55:00,
2015-08-01 08:00:00,67.1,63.4,30.00,WSW,248,1.0,1.0,88,0.00,,,0.00,Wunderground v.1.15,2015-08-01 13:00:00,
2015-08-01 08:05:00,67.6,63.9,30.00,SW,234,1.0,3.0,88,0.00,,,0.00,Wunderground v.1.15,2015-08-01 13:05:00,
2015-08-01 08:10:00,68.1,64.4,29.99,South,186,1.0,2.0,88,0.00,,,0.00,Wunderground v.1.15,2015-08-01 13:10:00,
2015-08-01 08:15:00,68.8,64.8,30.00,WSW,244,2.0,4.0,87,0.00,,,0.00,Wunderground v.1.15,2015-08-01 13:15:00,
2015-08-01 08:20:00,69.3,65.3,29.99,SW,217,2.0,3.0,87,0.00,,,0.00,Wunderground v.1.15,2015-08-01 13:20:00,
2015-08-01 08:25:00,70.0,66.0,29.99,SW,217,0.0,3.0,87,0.00,,,0.00,Wunderground v.1.15,2015-08-01 13:25:00,
2015-08-01 08:35:00,71.9,66.8,29.99,SW,236,2.0,4.0,84,0.00,,,0.00,Wunderground v.1.15,2015-08-01 13:35:00,
2015-08-01 08:40:00,72.5,67.0,29.99,WSW,240,3.0,4.0,83,0.00,,,0.00,Wunderground v.1.15,2015-08-01 13:40:00,
2015-08-01 08:45:00,73.0,66.8,29.99,SW,233,4.0,6.0,81,0.00,,,0.00,Wunderground v.1.15,2015-08-01 13:45:00,
2015-08-01 08:50:00,73.4,66.9,29.99,SSW,208,3.0,4.0,80,0.00,,,0.00,Wunderground v.1.15,2015-08-01 13:50:00,
2015-08-01 08:55:00,73.8,67.6,29.99,South,185,3.0,6.0,81,0.00,,,0.00,Wunderground v.1.15,2015-08-01 13:55:00,
2015-08-01 09:00:00,74.4,68.2,29.99,SW,227,2.0,3.0,81,0.00,,,0.00,Wunderground v.1.15,2015-08-01 14:00:00,
2015-08-01 09:05:00,74.9,68.3,29.99,SW,225,5.0,9.0,80,0.00,,,0.00,Wunderground v.1.15,2015-08-01 14:05:00,
2015-08-01 09:10:00,75.3,68.3,29.99,SSW,211,3.0,6.0,79,0.00,,,0.00,Wunderground v.1.15,2015-08-01 14:10:00,
2015-08-01 09:15:00,75.8,68.1,29.99,SSW,195,4.0,10.0,77,0.00,,,0.00,Wunderground v.1.15,2015-08-01 14:15:00,
2015-08-01 09:20:00,76.1,68.0,29.99,SSW,198,4.0,5.0,76,0.00,,,0.00,Wunderground v.1.15,2015-08-01 14:20:00,
2015-08-01 09:25:00,76.2,67.7,29.99,SW,229,4.0,9.0,75,0.00,,,0.00,Wunderground v.1.15,2015-08-01 14:25:00,
2015-08-01 09:30:00,76.6,68.1,29.99,SSW,203,3.0,6.0,75,0.00,,,0.00,Wunderground v.1.15,2015-08-01 14:30:00,
2015-08-01 09:35:00,77.3,69.1,29.98,SSW,195,5.0,11.0,76,0.00,,,0.00,Wunderground v.1.15,2015-08-01 14:35:00,
2015-08-01 09:40:00,77.8,68.8,29.99,SW,235,6.0,10.0,74,0.00,,,0.00,Wunderground v.1.15,2015-08-01 14:40:00,
2015-08-01 09:45:00,78.0,69.0,29.99,SW,215,5.0,15.0,74,0.00,,,0.00,Wunderground v.1.15,2015-08-01 14:45:00,
2015-08-01 09:50:00,78.3,68.5,29.99,WSW,242,6.0,11.0,72,0.00,,,0.00,Wunderground v.1.15,2015-08-01 14:50:00,
2015-08-01 09:55:00,78.4,69.0,29.99,WSW,252,10.0,16.0,73,0.00,,,0.00,Wunderground v.1.15,2015-08-01 14:55:00,
2015-08-01 10:00:00,78.6,68.8,29.99,WSW,242,8.0,14.0,72,0.00,,,0.00,Wunderground v.1.15,2015-08-01 15:00:00,
2015-08-01 10:05:00,78.9,69.5,29.99,WSW,254,13.0,14.0,73,0.00,,,0.00,Wunderground v.1.15,2015-08-01 15:05:00,
2015-08-01 10:10:00,79.3,69.5,29.99,SW,222,5.0,9.0,72,0.00,,,0.00,Wunderground v.1.15,2015-08-01 15:10:00,
2015-08-01 10:15:00,79.3,68.7,29.99,WSW,254,14.0,19.0,70,0.00,,,0.00,Wunderground v.1.15,2015-08-01 15:15:00,
2015-08-01 10:20:00,79.5,69.3,29.99,SW,236,9.0,15.0,71,0.00,,,0.00,Wunderground v.1.15,2015-08-01 15:20:00,
2015-08-01 10:25:00,79.8,69.6,29.99,SW,217,6.0,15.0,71,0.00,,,0.00,Wunderground v.1.15,2015-08-01 15:25:00,
2015-08-01 10:30:00,80.2,69.9,29.98,SW,220,6.0,12.0,71,0.00,,,0.00,Wunderground v.1.15,2015-08-01 15:30:00,
2015-08-01 10:35:00,80.2,69.1,29.98,SSW,207,7.0,15.0,69,0.00,,,0.00,Wunderground v.1.15,2015-08-01 15:35:00,
2015-08-01 10:40:00,80.3,70.0,29.98,SW,225,8.0,8.0,71,0.00,,,0.00,Wunderground v.1.15,2015-08-01 15:40:00,
2015-08-01 10:45:00,80.2,69.5,29.98,SW,215,5.0,12.0,70,0.00,,,0.00,Wunderground v.1.15,2015-08-01 15:45:00,
2015-08-01 10:50:00,80.4,70.1,29.98,SW,219,6.0,11.0,71,0.00,,,0.00,Wunderground v.1.15,2015-08-01 15:50:00,
2015-08-01 10:55:00,80.7,70.8,29.98,SSW,202,4.0,11.0,72,0.00,,,0.00,Wunderground v.1.15,2015-08-01 15:55:00,
2015-08-01 11:00:00,80.9,70.6,29.98,WSW,245,13.0,15.0,71,0.00,,,0.00,Wunderground v.1.15,2015-08-01 16:00:00,
2015-08-01 11:05:00,81.0,70.7,29.98,SW,233,4.0,15.0,71,0.00,,,0.00,Wunderground v.1.15,2015-08-01 16:05:00,
2015-08-01 11:10:00,81.3,71.8,29.98,WSW,245,8.0,8.0,73,0.00,,,0.00,Wunderground v.1.15,2015-08-01 16:10:00,
2015-08-01 11:15:00,81.7,71.8,29.98,SSW,197,5.0,14.0,72,0.00,,,0.00,Wunderground v.1.15,2015-08-01 16:15:00,
2015-08-01 11:20:00,81.6,70.9,29.98,SSW,207,3.0,7.0,70,0.00,,,0.00,Wunderground v.1.15,2015-08-01 16:20:00,
2015-08-01 11:25:00,81.5,71.2,29.99,SSW,207,4.0,14.0,71,0.00,,,0.00,Wunderground v.1.15,2015-08-01 16:25:00,
2015-08-01 11:30:00,81.7,70.5,29.99,SW,232,8.0,9.0,69,0.00,,,0.00,Wunderground v.1.15,2015-08-01 16:30:00,
2015-08-01 11:35:00,81.8,71.9,29.99,SSW,209,6.0,13.0,72,0.00,,,0.00,Wunderground v.1.15,2015-08-01 16:35:00,
2015-08-01 11:40:00,82.0,70.8,29.99,SW,234,7.0,7.0,69,0.00,,,0.00,Wunderground v.1.15,2015-08-01 16:40:00,
2015-08-01 11:45:00,82.2,71.4,29.98,SSW,205,9.0,15.0,70,0.00,,,0.00,Wunderground v.1.15,2015-08-01 16:45:00,
2015-08-01 11:50:00,81.9,70.3,29.98,WSW,251,5.0,8.0,68,0.00,,,0.00,Wunderground v.1.15,2015-08-01 16:50:00,
2015-08-01 11:55:00,82.0,71.7,29.98,WSW,254,11.0,13.0,71,0.00,,,0.00,Wunderground v.1.15,2015-08-01 16:55:00,
2015-08-01 12:00:00,82.4,71.6,29.98,WSW,239,8.0,9.0,70,0.00,,,0.00,Wunderground v.1.15,2015-08-01 17:00:00,
2015-08-01 12:06:00,82.3,72.4,29.98,SSW,210,6.0,13.0,72,0.00,,,0.00,Wunderground v.1.15,2015-08-01 17:06:00,
2015-08-01 12:11:00,82.2,71.0,29.98,SW,220,7.0,11.0,69,0.00,,,0.00,Wunderground v.1.15,2015-08-01 17:11:00,
2015-08-01 12:16:00,82.6,71.0,29.98,West,265,10.0,13.0,68,0.00,,,0.00,Wunderground v.1.15,2015-08-01 17:16:00,
2015-08-01 12:21:00,82.5,70.4,29.97,SW,234,6.0,12.0,67,0.00,,,0.00,Wunderground v.1.15,2015-08-01 17:21:00,
2015-08-01 12:26:00,82.1,70.5,29.97,SW,234,9.0,12.0,68,0.00,,,0.00,Wunderground v.1.15,2015-08-01 17:26:00,
2015-08-01 12:31:00,82.4,71.6,29.97,WSW,243,9.0,11.0,70,0.00,,,0.00,Wunderground v.1.15,2015-08-01 17:31:00,
2015-08-01 12:36:00,83.0,73.0,29.97,SSW,200,4.0,11.0,72,0.00,,,0.00,Wunderground v.1.15,2015-08-01 17:36:00,
2015-08-01 12:41:00,83.4,71.3,29.96,WSW,244,2.0,8.0,67,0.00,,,0.00,Wunderground v.1.15,2015-08-01 17:41:00,
2015-08-01 12:46:00,83.4,70.8,29.96,SSW,198,3.0,11.0,66,0.00,,,0.00,Wunderground v.1.15,2015-08-01 17:46:00,
2015-08-01 12:51:00,83.1,71.0,29.96,WSW,251,8.0,9.0,67,0.00,,,0.00,Wunderground v.1.15,2015-08-01 17:51:00,
2015-08-01 12:56:00,82.8,71.6,29.95,SSW,197,3.0,13.0,69,0.00,,,0.00,Wunderground v.1.15,2015-08-01 17:56:00,
2015-08-01 13:01:00,83.0,71.3,29.96,SW,234,3.0,9.0,68,0.00,,,0.00,Wunderground v.1.15,2015-08-01 18:01:00,
2015-08-01 13:06:00,83.3,70.8,29.95,SW,232,4.0,9.0,66,0.00,,,0.00,Wunderground v.1.15,2015-08-01 18:06:00,
2015-08-01 13:11:00,83.2,72.0,29.95,SW,232,5.0,9.0,69,0.00,,,0.00,Wunderground v.1.15,2015-08-01 18:11:00,
2015-08-01 13:16:00,83.2,72.0,29.95,SSW,202,3.0,9.0,69,0.00,,,0.00,Wunderground v.1.15,2015-08-01 18:16:00,
2015-08-01 13:21:00,83.1,71.9,29.95,WSW,237,9.0,12.0,69,0.00,,,0.00,Wunderground v.1.15,2015-08-01 18:21:00,
2015-08-01 13:26:00,82.9,71.7,29.95,WSW,250,9.0,12.0,69,0.00,,,0.00,Wunderground v.1.15,2015-08-01 18:26:00,
2015-08-01 13:31:00,82.7,71.5,29.95,WSW,250,4.0,7.0,69,0.00,,,0.00,Wunderground v.1.15,2015-08-01 18:31:00,
2015-08-01 13:36:00,82.8,72.0,29.95,SW,223,6.0,9.0,70,0.00,,,0.00,Wunderground v.1.15,2015-08-01 18:36:00,
2015-08-01 13:41:00,83.0,71.8,29.95,SSW,208,3.0,7.0,69,0.00,,,0.00,Wunderground v.1.15,2015-08-01 18:41:00,
2015-08-01 13:46:00,83.2,71.1,29.95,SSW,194,2.0,9.0,67,0.00,,,0.00,Wunderground v.1.15,2015-08-01 18:46:00,
2015-08-01 13:51:00,83.3,70.8,29.95,WSW,238,5.0,11.0,66,0.00,,,0.00,Wunderground v.1.15,2015-08-01 18:51:00,
2015-08-01 13:56:00,83.4,71.7,29.94,SW,215,6.0,11.0,68,0.00,,,0.00,Wunderground v.1.15,2015-08-01 18:56:00,
2015-08-01 14:01:00,83.6,72.8,29.94,WSW,243,4.0,7.0,70,0.00,,,0.00,Wunderground v.1.15,2015-08-01 19:01:00,
2015-08-01 14:06:00,83.5,71.8,29.94,WSW,252,5.0,11.0,68,0.00,,,0.00,Wunderground v.1.15,2015-08-01 19:06:00,
2015-08-01 14:11:00,83.8,72.1,29.95,WSW,248,8.0,9.0,68,0.00,,,0.00,Wunderground v.1.15,2015-08-01 19:11:00,
2015-08-01 14:16:00,83.7,71.6,29.95,West,260,8.0,12.0,67,0.00,,,0.00,Wunderground v.1.15,2015-08-01 19:16:00,
2015-08-01 14:21:00,83.9,72.6,29.95,SSW,194,3.0,6.0,69,0.00,,,0.00,Wunderground v.1.15,2015-08-01 19:21:00,
2015-08-01 14:26:00,84.5,71.4,29.95,WSW,249,9.0,12.0,65,0.00,,,0.00,Wunderground v.1.15,2015-08-01 19:26:00,
2015-08-01 14:31:00,84.6,71.5,29.95,WSW,248,7.0,10.0,65,0.00,,,0.00,Wunderground v.1.15,2015-08-01 19:31:00,
2015-08-01 14:36:00,84.6,71.5,29.95,WSW,248,9.0,13.0,65,0.00,,,0.00,Wunderground v.1.15,2015-08-01 19:36:00,
2015-08-01 14:41:00,84.5,71.0,29.95,WSW,248,8.0,8.0,64,0.00,,,0.00,Wunderground v.1.15,2015-08-01 19:41:00,
2015-08-01 14:46:00,84.7,73.0,29.95,WSW,252,12.0,14.0,68,0.00,,,0.00,Wunderground v.1.15,2015-08-01 19:46:00,
2015-08-01 14:51:00,84.8,72.6,29.94,SW,232,11.0,13.0,67,0.00,,,0.00,Wunderground v.1.15,2015-08-01 19:51:00,
2015-08-01 14:56:00,84.9,71.4,29.94,SW,236,5.0,13.0,64,0.00,,,0.00,Wunderground v.1.15,2015-08-01 19:56:00,
2015-08-01 15:01:00,85.0,72.4,29.94,SW,229,3.0,10.0,66,0.00,,,0.00,Wunderground v.1.15,2015-08-01 20:01:00,
2015-08-01 15:06:00,85.3,72.2,29.94,West,260,4.0,10.0,65,0.00,,,0.00,Wunderground v.1.15,2015-08-01 20:06:00,
2015-08-01 15:11:00,85.6,71.6,29.94,SW,229,5.0,10.0,63,0.00,,,0.00,Wunderground v.1.15,2015-08-01 20:11:00,
2015-08-01 15:16:00,85.5,72.4,29.94,WSW,251,11.0,11.0,65,0.00,,,0.00,Wunderground v.1.15,2015-08-01 20:16:00,
2015-08-01 15:21:00,85.5,71.9,29.94,WSW,247,5.0,9.0,64,0.00,,,0.00,Wunderground v.1.15,2015-08-01 20:21:00,
2015-08-01 15:26:00,85.0,70.0,29.94,SW,224,6.0,13.0,61,0.00,,,0.00,Wunderground v.1.15,2015-08-01 20:26:00,
2015-08-01 15:31:00,85.2,70.7,29.93,SW,236,9.0,9.0,62,0.00,,,0.00,Wunderground v.1.15,2015-08-01 20:31:00,
2015-08-01 15:36:00,84.9,70.4,29.94,SSW,213,5.0,12.0,62,0.00,,,0.00,Wunderground v.1.15,2015-08-01 20:36:00,
2015-08-01 15:41:00,84.9,71.4,29.93,WSW,239,5.0,7.0,64,0.00,,,0.00,Wunderground v.1.15,2015-08-01 20:41:00,
2015-08-01 15:46:00,84.9,69.9,29.93,West,266,9.0,12.0,61,0.00,,,0.00,Wunderground v.1.15,2015-08-01 20:46:00,
2015-08-01 15:51:00,85.0,69.1,29.93,WSW,241,8.0,10.0,59,0.00,,,0.00,Wunderground v.1.15,2015-08-01 20:51:00,
2015-08-01 15:56:00,84.8,67.9,29.93,WSW,239,8.0,10.0,57,0.00,,,0.00,Wunderground v.1.15,2015-08-01 20:56:00,
2015-08-01 16:01:00,84.8,69.9,29.93,WSW,246,4.0,9.0,61,0.00,,,0.00,Wunderground v.1.15,2015-08-01 21:01:00,
2015-08-01 16:06:00,85.0,71.5,29.93,West,259,4.0,9.0,64,0.00,,,0.00,Wunderground v.1.15,2015-08-01 21:06:00,
2015-08-01 16:11:00,85.1,71.1,29.93,WSW,244,5.0,7.0,63,0.00,,,0.00,Wunderground v.1.15,2015-08-01 21:11:00,
2015-08-01 16:16:00,84.9,71.4,29.93,SW,225,2.0,9.0,64,0.00,,,0.00,Wunderground v.1.15,2015-08-01 21:16:00,
2015-08-01 16:21:00,84.8,71.3,29.92,WSW,237,5.0,8.0,64,0.00,,,0.00,Wunderground v.1.15,2015-08-01 21:21:00,
2015-08-01 16:26:00,84.6,71.1,29.92,West,261,2.0,8.0,64,0.00,,,0.00,Wunderground v.1.15,2015-08-01 21:26:00,
2015-08-01 16:31:00,84.6,71.5,29.92,WSW,257,2.0,7.0,65,0.00,,,0.00,Wunderground v.1.15,2015-08-01 21:31:00,
2015-08-01 16:36:00,84.9,71.4,29.92,WSW,242,4.0,7.0,64,0.00,,,0.00,Wunderground v.1.15,2015-08-01 21:36:00,
2015-08-01 16:41:00,85.2,71.6,29.92,West,262,3.0,7.0,64,0.00,,,0.00,Wunderground v.1.15,2015-08-01 21:41:00,
2015-08-01 16:46:00,84.8,71.3,29.92,West,259,6.0,8.0,64,0.00,,,0.00,Wunderground v.1.15,2015-08-01 21:46:00,
2015-08-01 16:51:00,84.7,71.2,29.91,WSW,254,2.0,3.0,64,0.00,,,0.00,Wunderground v.1.15,2015-08-01 21:51:00,
2015-08-01 16:56:00,84.8,72.2,29.91,West,271,1.0,4.0,66,0.00,,,0.00,Wunderground v.1.15,2015-08-01 21:56:00,
2015-08-01 17:01:00,85.0,72.8,29.91,WSW,247,2.0,3.0,67,0.00,,,0.00,Wunderground v.1.15,2015-08-01 22:01:00,
2015-08-01 17:06:00,85.4,72.7,29.91,WSW,248,2.0,3.0,66,0.00,,,0.00,Wunderground v.1.15,2015-08-01 22:06:00,
2015-08-01 17:11:00,85.2,72.6,29.91,WSW,238,5.0,7.0,66,0.00,,,0.00,Wunderground v.1.15,2015-08-01 22:11:00,
2015-08-01 17:16:00,84.8,72.2,29.90,West,263,2.0,7.0,66,0.00,,,0.00,Wunderground v.1.15,2015-08-01 22:16:00,
2015-08-01 17:21:00,84.9,72.3,29.90,WSW,248,2.0,4.0,66,0.00,,,0.00,Wunderground v.1.15,2015-08-01 22:21:00,
2015-08-01 17:26:00,85.0,73.7,29.90,WSW,257,2.0,4.0,69,0.00,,,0.00,Wunderground v.1.15,2015-08-01 22:26:00,
2015-08-01 17:31:00,85.0,71.9,29.90,WSW,243,3.0,5.0,65,0.00,,,0.00,Wunderground v.1.15,2015-08-01 22:31:00,
2015-08-01 17:36:00,85.0,72.8,29.90,WSW,258,1.0,5.0,67,0.00,,,0.00,Wunderground v.1.15,2015-08-01 22:36:00,
2015-08-01 17:41:00,85.1,72.9,29.90,SSW,192,1.0,3.0,67,0.00,,,0.00,Wunderground v.1.15,2015-08-01 22:41:00,
2015-08-01 17:46:00,85.2,73.0,29.90,SW,230,3.0,4.0,67,0.00,,,0.00,Wunderground v.1.15,2015-08-01 22:46:00,
2015-08-01 17:51:00,84.8,71.7,29.89,SSW,196,2.0,5.0,65,0.00,,,0.00,Wunderground v.1.15,2015-08-01 22:51:00,
2015-08-01 17:56:00,84.5,72.3,29.89,SW,236,1.0,5.0,67,0.00,,,0.00,Wunderground v.1.15,2015-08-01 22:56:00,
2015-08-01 18:06:00,83.8,73.0,29.89,SSW,192,3.0,4.0,70,0.00,,,0.00,Wunderground v.1.15,2015-08-01 23:06:00,
2015-08-01 18:11:00,83.5,72.7,29.89,SSW,193,1.0,4.0,70,0.00,,,0.00,Wunderground v.1.15,2015-08-01 23:11:00,
2015-08-01 18:16:00,83.2,72.4,29.89,SSW,197,2.0,4.0,70,0.00,,,0.00,Wunderground v.1.15,2015-08-01 23:16:00,
2015-08-01 18:21:00,83.1,73.1,29.89,SSW,197,1.0,2.0,72,0.00,,,0.00,Wunderground v.1.15,2015-08-01 23:21:00,
2015-08-01 18:26:00,83.0,72.6,29.89,SSW,197,1.0,3.0,71,0.00,,,0.00,Wunderground v.1.15,2015-08-01 23:26:00,
2015-08-01 18:31:00,83.2,72.8,29.88,South,191,2.0,3.0,71,0.00,,,0.00,Wunderground v.1.15,2015-08-01 23:31:00,
2015-08-01 18:36:00,83.9,73.5,29.88,South,191,2.0,3.0,71,0.00,,,0.00,Wunderground v.1.15,2015-08-01 23:36:00,
2015-08-01 18:41:00,84.6,72.9,29.88,South,174,3.0,4.0,68,0.00,,,0.00,Wunderground v.1.15,2015-08-01 23:41:00,
2015-08-01 18:46:00,84.9,73.6,29.88,South,176,1.0,4.0,69,0.00,,,0.00,Wunderground v.1.15,2015-08-01 23:46:00,